Probability
0 0 0 0 0 0 0 0 0 0 0 0 0 0 0 0 0 0 0 0 0 0 0 0 0 0 0 0 0 0 0 0 0 0 0 0 0 0 0 0 0 0 0
0 0 0 0 0 0 0 0 0 0 0 0 0 0 0 0 0 0 0 0 0 0 0 0 0 0 0 0 0 0 0 0 0 0 0 0 0 0 0 0 0 0 0
0 0 0 0 0 0 0 0 0 0 0 0 0 0 0 0 0 0 0 0 0 0 0 0 0 0 0 0 0 0 0 0 0 0 0 0 0 0 0 0 0 0 0
0 0 0 0 0 0 0 0 0 0 0 0 0 0 0 0 0 0 0 0 0 0 0 0 0 0 0 0 0 0 0 0 0 0 0 0 0 0 0 0 0 0 0
0 0 0 0 0 0 0 0 0 0 0 0 0 0 0 0 0 0 0 0 0 0 0 0 0 0 0 0 0 0 0 0 0 0 0 0 0 0 0 0 0 0 0
0 0 0 0 0 0 0 0 0 0 0 0 0 0 0 0 0 0 0 0 0 0 0 0 0 0 0 0 0 0 0 0 0 0 0 0 0 0 0 0 0 0 0
0 0 0 0 0 0 0 0 0 0 0 0 0 0 0 0 0 0 0 0 0 0 0 0 0 0 0 0 0 0 0 0 0 0 0 0 0 0 0 0 0 0 0
0 0 0 0 0 0 0 0 0 0 0 0 0 0 0 0 0 0 0 0 0 0 0 0 0 0 0 0 0 0 0 0 0 0 0 0 0 0 0 0 0 0 0
0 0 0 0 0 0 0 0 0 0 0 0 0 0 0 0 0 0 0 0 0 0 0 0 0 0 0 0 0 0 0 0 0 0 0 0 0 0 0 0 0 0 0
0 0 0 0 0 0 0 0 0 0 0 0 0 0 0 0 0 0 0 0 0 0 0 0 0 0 0 0 0 0 0 0 0 0 0 0 0 0 0 0 0 0 0
0 0 0 0 0 0 0 0 0 0 0 0 0 0 0 0 0 0 0 0 0 0 0 0 0 0 0 0 0 0 0 0 0 0 0 0 0 0 0 0 0 0 0
0 0 0 0 0 0 0 0 0 0 0 0 0 0 0 0 0 0 0 0 0 0 0 0 0 0 0 0 0 0 0 0 0 0 0 0 0 0 0 0 0 0 0
0 0 0 0 0 0 0 0 0 0 0 0 0 0 0 0 0 0 0 0 0 0 0 0 0 0 0 0 0 0 0 0 0 0 0 0 0 0 0 0 0 0 0
0 0 0 0 0 0 0 0 0 0 0 0 0 0 0 0 0 0 0 0 0 0 0 0 0 0 0 0 0 0 0 0 0 0 0 0 0 0 0 0 0 0 0
0 0 0 0 0 0 0 0 0 0 0 0 0 0 0 0 0 0 0 0 0 0 0 0 0 0 0 0 0 0 0 0 0 0 0 0 0 0 0 0 0 0 0
0 0 0 0 0 0 0 0 0 0 0 0 0 0 0 0 0 0 0 0 0 0 0 0 0 0 0 0 0 0 0 0 0 0 0 0 0 0 0 0 0 0 0
0 0 0 0 0 0 0 0 0 0 0 0 0 0 0 0 0 0 0 0 0 0 0 0 0 0 0 0 0 0 0 0 0 0 0 0 0 0 0 0 0 0 0
0 0 0 0 0 0 0 0 0 0 0 0 0 0 0 0 0 0 0 0 0 0 0 0 0 0 0 0 0 0 0 0 0 0 0 0 0 0 0 0 0 0 0
0 0 0 0 0 0 0 0 0 0 0 0 0 0 0 0 0 0 0 0 0 0 0 0 0 0 0 0 0 0 0 0 0 0 0 0 0 0 0 0 0 0 0
0 0 0 0 0 0 0 0 0 0 0 0 0 0 0 0 0 0 0 0 0 0 0 0 0 0 0 0 0 0 0 0 0 0 0 0 0 0 0 0 0 0 0
0 0 0 0 0 0 0 0 0 0 0 0 0 0 0 0 0 0 0 0 0 0 0 0 0 0 0 0 0 0 0 0 0 0 0 0 0 0 0 0 0 0 0
0 0 0 0 0 0 0 0 0 0 0 0 0 0 0 0 0 0 0 0 0 0 0 0 0 0 0 0 0 0 0 0 0 0 0 0 0 0 0 0 0 0 0
0 0 0 0 0 0 0 0 0 0 0 0 0 0 0 0 0 0 0 0 0 0 0 0 0 0 0 0 0 0 0 0 0 0 0 0 0 0 0 0 0 0 0
0 0 0 0 0 0 0 0 0 0 0 0 0 0 0 0 0 0 0 0 0 0 0 0 0 0 0 0 0 0 0 0 0 0 0 0 0 0 0 0 0 0 0
0 0 0 0 0 0 0 0 0 0 0 0 0 0 0 0 0 0 0 0 0 0 0 0 0 0 0 0 0 0 0 0 0 0 0 0 0 0 0 0 0 0 0
0 0 0 0 0 0 0 0 0 0 0 0 0 0 0 0 0 0 0 0 0 0 0 0 0 0 0 0 0 0 0 0 0 0 0 0 0 0 0 0 0 0 0
Wind_Speed
8 7 6 5 6 7 8 8 9 10 10 10 10 11 11 11 10 10 10 19 20 21 22 22 23 23 23 23 23 23 23 24 24 24 24 24 24 24 24 24 25 25 25
8 8 8 7 7 7 8 8 11 10 9 9 11 11 11 10 10 10 9 14 21 21 21 21 22 22 22 22 22 23 23 23 23 23 23 23 23 24 24 24 24 24 25
10 9 8 7 7 8 10 10 11 10 9 10 11 10 9 9 9 9 9 8 11 18 20 20 20 21 21 21 21 22 22 22 22 22 22 23 23 23 23 24 24 24 24
12 10 9 8 9 8 9 10 10 10 9 9 9 8 8 7 9 9 8 8 7 8 14 20 20 20 20 20 20 20 21 21 21 21 22 22 22 23 23 23 23 24 24
13 11 9 9 11 9 9 9 10 10 11 10 9 8 7 7 7 8 9 9 8 8 8 13 18 19 18 19 19 19 20 20 20 21 21 21 22 22 22 23 23 24 24
13 11 9 12 12 10 9 10 12 10 10 11 10 9 7 6 5 6 7 7 7 8 8 7 7 11 17 18 18 19 19 19 19 20 20 20 21 21 22 22 23 24 24
13 12 10 13 12 11 13 14 14 15 11 11 9 8 7 6 6 5 5 5 6 7 7 7 6 5 6 14 17 18 18 18 18 19 19 20 20 21 21 22 23 24 24
13 11 14 13 13 11 14 15 16 11 10 9 7 7 6 5 4 3 4 4 5 5 6 7 7 6 5 5 10 16 16 17 17 18 18 19 20 20 21 22 23 24 24
11 12 14 14 14 14 15 17 17 14 12 9 6 5 7 7 6 4 4 4 4 4 4 4 6 6 6 5 5 11 14 15 16 17 17 18 19 20 21 22 23 23 24
11 11 13 14 15 13 16 17 16 12 15 11 6 3 1 5 7 7 5 5 4 4 4 3 4 5 5 4 5 10 12 13 14 15 16 17 18 19 20 22 23 23 24
10 11 12 13 14 13 16 17 15 13 12 12 8 6 4 3 4 6 7 8 6 4 4 4 3 3 3 4 4 8 11 12 13 14 15 16 17 19 20 21 22 24 25
8 10 11 11 13 12 15 16 15 15 12 12 8 7 6 6 6 5 5 8 7 5 5 4 3 2 2 2 4 7 9 11 12 13 14 15 17 18 20 21 22 24 25
8 12 12 12 12 12 13 14 13 14 14 13 10 7 5 4 5 4 6 6 5 4 5 5 4 3 1 0 1 5 6 9 11 12 13 15 16 18 19 21 22 24 25
11 14 14 13 13 13 13 13 11 12 11 11 10 8 6 4 5 4 5 6 5 4 5 6 5 4 3 1 2 4 4 7 11 12 13 15 16 17 19 20 22 24 25
10 14 15 14 13 13 14 14 10 12 11 10 9 9 6 5 4 4 4 5 5 6 6 7 5 6 4 2 2 3 4 7 10 11 13 14 16 17 19 20 22 24 25
11 14 14 14 13 13 14 13 11 11 11 10 8 10 8 6 5 4 4 3 2 3 4 4 4 4 4 3 3 4 5 8 8 10 12 14 16 17 18 20 22 24 25
12 14 14 14 14 14 14 13 12 14 13 12 10 11 10 9 6 5 5 4 3 2 3 3 3 3 4 4 3 4 5 6 5 9 12 14 15 16 18 20 22 23 24
13 13 13 14 14 14 14 15 15 15 15 15 13 12 12 8 9 7 6 5 4 3 3 4 3 4 5 4 5 5 5 5 6 10 13 15 15 16 18 20 21 22 23
13 12 13 14 15 15 14 14 15 15 15 15 15 14 13 12 11 8 8 6 5 4 3 3 3 3 3 3 5 5 6 6 6 8 12 13 14 16 19 20 20 21 22
14 15 15 14 14 14 14 13 13 13 13 13 13 13 13 13 13 11 8 8 7 6 5 4 4 4 4 4 4 5 5 5 6 6 9 9 12 16 18 18 18 19 21
14 14 13 13 12 12 13 14 14 14 14 13 12 11 11 11 12 11 8 9 9 7 6 5 5 4 4 4 4 4 5 6 8 6 6 7 8 9 10 12 14 17 21
13 12 13 14 14 12 19 23 16 13 13 13 13 11 10 10 10 15 14 13 13 10 9 7 6 7 7 6 5 5 5 5 6 3 5 8 8 9 8 8 14 19 21
13 13 14 14 15 17 23 24 20 12 12 12 12 11 9 8 10 9 12 15 15 16 14 9 9 9 8 7 6 7 7 7 8 6 7 10 7 9 8 9 17 19 20
12 13 13 13 12 14 22 24 21 12 10 11 11 11 11 11 11 11 9 10 11 13 15 13 11 11 9 6 7 7 8 9 10 8 6 8 8 9 9 9 14 16 19
11 10 10 11 10 11 20 22 21 9 9 10 9 10 10 10 15 16 11 11 11 11 15 19 19 17 16 15 11 7 7 7 8 6 5 6 7 9 10 8 8 14 18
8 8 7 8 9 8 17 22 22 9 9 8 8 9 11 12 16 18 13 12 13 13 10 9 13 16 15 15 17 12 9 8 8 6 4 4 6 6 8 6 5 8 11
Wind_Direction
157 151 144 143 137 131 127 119 112 106 99 91 86 85 83 81 81 79 68 58 63 68 70 71 70 69 67 64 61 58 55 51 47 44 40 37 35 32 28 25 22 19 16
162 155 147 143 140 136 128 123 119 111 102 97 91 86 85 85 83 83 80 67 62 63 66 68 68 68 67 64 61 57 54 51 47 43 39 36 33 30 27 23 20 17 14
167 159 152 148 142 135 129 123 118 113 109 104 97 90 84 81 85 83 80 76 70 63 62 65 66 66 65 63 60 57 53 50 46 42 38 34 31 28 24 21 17 14 11
171 161 155 151 144 142 139 135 132 124 119 113 104 96 90 86 82 82 81 79 74 70 64 61 61 62 62 61 59 57 53 49 44 40 36 32 29 25 22 18 15 12 9
174 166 159 152 149 147 146 141 137 134 128 119 109 98 90 86 87 85 83 78 74 73 72 66 60 55 57 58 55 53 51 47 42 38 34 30 26 22 18 15 12 9 6
174 165 156 156 154 150 150 148 139 133 129 125 113 97 87 89 87 87 88 83 78 76 74 71 65 57 53 54 52 49 46 43 39 35 30 26 22 18 15 12 9 6 3
174 167 159 161 163 161 158 153 142 138 137 135 122 110 95 87 88 90 94 95 91 84 80 73 65 61 54 50 47 44 41 38 35 31 26 22 18 14 11 8 5 2 359
176 171 167 167 167 160 155 156 150 145 156 167 151 146 143 145 123 100 111 111 112 105 90 78 71 62 58 52 43 41 35 32 29 26 22 18 13 10 6 4 0 357 355
179 177 174 170 169 166 165 167 166 160 169 182 196 174 165 165 149 152 144 145 141 130 114 99 82 68 61 57 43 36 30 26 23 20 16 12 8 4 1 359 356 353 350
181 180 177 175 172 172 172 174 178 173 170 173 182 217 211 144 157 155 168 168 161 151 139 126 104 81 63 60 48 34 23 21 18 14 11 7 2 359 356 354 351 349 347
183 180 180 179 177 177 176 178 180 180 180 180 172 161 154 153 163 156 164 170 177 171 162 149 134 107 74 56 43 29 16 13 11 8 5 1 357 354 351 349 347 345 343
182 183 183 185 183 180 180 182 182 184 184 185 179 172 166 169 176 168 155 164 171 165 173 176 171 146 94 53 45 19 8 5 3 1 358 355 351 348 346 344 342 341 340
186 187 184 187 186 186 181 180 182 185 185 184 182 180 177 172 153 152 141 147 158 153 177 189 190 184 165 343 25 7 0 356 353 353 351 348 345 343 341 339 338 337 336
190 184 185 187 185 184 180 180 182 182 183 183 180 172 162 154 153 154 147 149 151 161 184 182 179 194 201 236 346 330 338 347 343 343 343 341 339 337 336 335 335 334 332
187 183 185 184 183 182 180 177 179 179 176 178 172 162 152 146 145 136 141 159 157 168 182 178 179 184 205 231 285 305 320 334 330 332 333 332 331 330 330 331 331 329 328
186 182 184 182 180 179 179 176 171 173 169 169 163 157 151 146 140 136 137 135 147 158 164 158 175 168 196 230 263 287 305 311 306 318 322 321 322 323 324 325 326 325 325
187 185 185 181 180 178 178 175 171 170 169 163 163 161 155 152 149 147 144 143 141 147 157 148 169 187 222 239 247 271 291 296 298 303 308 310 312 313 317 320 320 321 321
189 187 185 183 183 180 179 177 172 174 172 169 167 164 160 159 159 158 158 161 159 163 174 178 182 201 227 247 268 278 281 281 283 291 296 299 301 304 310 313 314 316 318
187 185 186 187 186 182 181 181 176 176 176 173 171 171 167 167 169 169 170 167 163 167 184 191 198 208 231 240 270 270 271 272 273 279 287 287 288 297 303 305 309 313 314
188 189 190 191 188 184 181 177 175 176 175 174 174 175 173 177 176 174 175 174 169 173 182 202 217 226 237 237 253 269 275 270 277 278 274 274 284 291 294 298 303 307 309
193 191 190 190 187 185 184 179 177 176 175 173 174 178 180 182 183 178 176 177 175 181 186 205 219 228 233 225 234 246 269 286 283 268 275 277 284 286 290 293 297 303 309
193 190 192 191 191 193 190 186 178 177 176 175 176 179 180 182 187 193 194 191 188 188 194 202 215 227 237 233 235 240 262 284 287 258 286 286 284 283 286 289 299 306 308
193 195 197 197 198 199 192 189 184 175 178 181 179 177 179 186 187 196 206 209 211 216 213 210 225 231 237 229 228 240 245 255 266 290 301 287 285 283 288 289 298 301 306
197 199 200 201 200 201 195 190 181 177 181 184 184 184 185 184 191 193 200 212 220 224 225 226 234 240 241 236 229 244 260 267 271 265 256 276 293 293 296 292 294 298 308
198 200 196 194 194 195 195 190 181 178 184 187 187 189 189 192 199 199 202 217 229 237 239 235 239 245 246 244 237 241 245 252 269 267 230 256 290 303 299 288 291 302 309
192 189 190 188 186 184 193 192 185 180 187 188 189 194 197 201 204 205 208 217 231 236 229 235 242 248 249 248 242 235 237 244 259 272 230 241 283 307 302 290 296 304 306